This is the latest recevied weather packets stored in our database for station/object K7DC. If no packets are shown the sender has not sent any weather packets the latest 10 day(s).
| Time | Temp. | Humidity | Pressure | Rain* | Wind** | Luminosity | Snow |
|---|---|---|---|---|---|---|---|
| 1776956390 | 19.44° C | 32% | 1015.2 hPa | 0 mm | - | 61 W/m² | - |
| 1776956087 | 18.89° C | 32% | 1015 hPa | 0 mm | - | 316 W/m² | - |
| 1776955782 | 18.33° C | 33% | 1014.8 hPa | 0 mm | - | 49 W/m² | - |
| 1776955480 | 18.33° C | 33% | 1015.1 hPa | 0 mm | - | 48 W/m² | - |
| 1776955179 | 17.78° C | 33% | 1015 hPa | 0 mm | - | 260 W/m² | - |
| 1776954876 | 17.78° C | 34% | 1015 hPa | 0 mm | - | 238 W/m² | - |
| 1776954572 | 17.22° C | 36% | 1015 hPa | 0 mm | - | 220 W/m² | - |
| 1776954267 | 17.22° C | 36% | 1015 hPa | 0 mm | - | 201 W/m² | - |
| 1776953967 | 17.22° C | 37% | 1014.8 hPa | 0 mm | - | 179 W/m² | - |
| 1776953662 | 16.67° C | 37% | 1014.8 hPa | 0 mm | - | 162 W/m² | - |
| 1776953362 | 16.67° C | 37% | 1015 hPa | 0 mm | - | 143 W/m² | - |
| 1776953061 | 16.67° C | 37% | 1014.8 hPa | 0 mm | - | 129 W/m² | - |
| 1776952757 | 16.11° C | 38% | 1014.8 hPa | 0 mm | - | 113 W/m² | - |
| 1776952455 | 15.56° C | 39% | 1014.7 hPa | 0 mm | - | 96 W/m² | - |
| 1776952150 | 15° C | 40% | 1014.8 hPa | 0 mm | - | 84 W/m² | - |
| 1776951848 | 15° C | 41% | 1014.7 hPa | 0 mm | - | 72 W/m² | - |
| 1776951544 | 14.44° C | 42% | 1014.5 hPa | 0 mm | - | 59 W/m² | - |
| 1776951241 | 13.89° C | 42% | 1014.7 hPa | 0 mm | - | 47 W/m² | - |
| 1776950937 | 13.89° C | 44% | 1014.4 hPa | 0 mm | - | 37 W/m² | - |
| 1776950633 | 13.33° C | 45% | 1014.6 hPa | 0 mm | - | 31 W/m² | - |
| 1776950327 | 12.78° C | 46% | 1014.4 hPa | 0 mm | - | 27 W/m² | - |
| 1776950024 | 12.22° C | 47% | 1014.4 hPa | 0 mm | - | 22 W/m² | - |
| 1776949719 | 12.22° C | 48% | 1014.6 hPa | 0 mm | - | 17 W/m² | - |
| 1776949417 | 12.22° C | 47% | 1014.5 hPa | 0 mm | - | 13 W/m² | - |
| 1776949111 | 12.22° C | 48% | 1014.4 hPa | 0 mm | - | 9 W/m² | - |
* Rain latest hour (hover to see other rain measurements)
** Current wind speed in m/s (hover to see current wind gust speed)